[[{"header":{"parameterUnit":"m.s-1","parameterCategory":1,"la1":30.2991,"la2":30.254,"lo1":-89.0895,"lo2":-89.0444,"dy":0.0017,"dx":0.0017,"nx":28,"ny":28,"refTime":"2024-02-26T03:00:00:Z","depth":0,"parameterNumber":2,"parameterNumberName":"U-component_of_WINDS"},"data":[0,0,0,0,0,0,0,0,0,0,0,0,0,0,0,0,0,0,0,0,0,0,0,0,0,0,0,0,0,0,0,0,0,0,0,0,0,0,0,0,0,0,0,0,0,0,0,0,0,0,0,0,0,0,0,0,0,0,-0.1562,-0.1563,0,-0.1636,-0.1637,-0.1638,-0.1662,-0.1662,-0.1662,-0.1661,-0.1739,-0.1741,-0.1744,0,0,0,0,0,0,0,0,0,0,0,0,0,-0.1446,-0.1448,-0.1562,-0.1563,-0.1564,-0.1636,-0.1637,-0.1638,-0.1662,-0.1662,-0.1662,-0.1661,-0.1738,-0.1741,-0.1744,0,0,0,0,0,0,0,0,0,0,0,0,0,-0.1506,-0.1448,-0.1562,-0.1585,-0.1588,-0.1636,-0.1637,-0.1638,-0.1662,-0.1662,-0.1662,-0.1661,-0.1737,-0.1741,-0.1744,-0.1775,0,0,-0.1755,-0.1757,0,0,0,0,0,0,0,0,-0.1502,-0.151,-0.1581,-0.1583,-0.1587,-0.1639,-0.1624,-0.1684,-0.1663,-0.1634,-0.1661,-0.1661,-0.1706,-0.1713,-0.1727,-0.1779,-0.1782,-0.1755,-0.1758,-0.1759,-0.176,0,0,0,0,0,0,0,-0.1498,-0.1507,-0.1591,-0.1582,-0.1585,-0.1592,-0.16,-0.1636,-0.1672,-0.1637,-0.1639,-0.1647,-0.1708,-0.1724,-0.1729,-0.1784,-0.1755,-0.1759,-0.1761,-0.1762,-0.1865,-0.1866,0,0,0,0,0,0,-0.149,-0.1503,-0.1589,-0.1594,-0.1542,-0.1595,-0.1604,-0.1623,-0.1672,-0.1679,-0.1647,-0.1648,-0.1718,-0.1725,-0.1732,-0.1772,-0.1759,-0.1762,-0.1764,-0.1865,-0.1865,-0.1866,0,0,0,0,0,0,-0.1487,-0.1497,-0.1586,-0.1549,-0.1561,-0.1597,-0.1619,-0.1625,-0.1641,-0.168,-0.1687,-0.1656,-0.1718,-0.1727,-0.1765,-0.1775,-0.1764,-0.1767,-0.1864,-0.1865,-0.1866,-0.1852,0,0,0,0,0,0,-0.1484,-0.1496,-0.1507,-0.1549,-0.1563,-0.1616,-0.1619,-0.1626,-0.1646,-0.1648,-0.169,-0.1697,-0.1718,-0.1759,-0.1768,-0.178,-0.177,-0.1863,-0.1864,-0.1866,-0.1851,-0.1852,-0.1853,0,0,0,0,0,-0.1479,-0.1501,-0.1508,-0.1518,-0.1578,-0.1617,-0.1625,-0.1648,-0.1647,-0.1659,-0.1685,-0.1696,-0.1773,-0.1763,-0.1773,-0.1786,-0.1863,-0.1864,-0.1865,-0.1851,-0.1852,-0.1853,0,0,0,0,0,0,-0.146,-0.1507,-0.1515,-0.155,-0.1579,-0.1621,-0.1637,-0.1648,-0.1679,-0.1679,-0.1708,-0.1717,-0.1752,-0.1773,-0.1761,-0.1819,-0.1818,-0.1822,-0.1804,-0.1805,-0.1806,-0.18,-0.1773,0,0,0,0,0,-0.146,-0.1487,-0.1527,-0.1554,-0.1568,-0.16,-0.1618,-0.1634,-0.1665,-0.1678,-0.1706,-0.1736,-0.1768,-0.1788,-0.1819,-0.1855,-0.1865,-0.1869,-0.1869,-0.187,-0.1872,-0.1894,-0.1896,-0.1871,-0.1871,-0.1871,0,0,-0.146,-0.1489,-0.1504,-0.1551,-0.1575,-0.1603,-0.161,-0.164,-0.1661,-0.1682,-0.1719,-0.1741,-0.1777,-0.1814,-0.1832,-0.1832,-0.1882,-0.1872,-0.1871,-0.1874,-0.1895,-0.1897,-0.19,-0.1872,-0.1872,-0.1871,0,0,-0.1474,-0.1499,-0.1524,-0.1549,-0.1585,-0.1606,-0.1612,-0.1652,-0.1667,-0.1704,-0.1721,-0.1748,-0.1801,-0.1826,-0.1846,-0.1871,-0.1882,-0.188,-0.1883,-0.1903,-0.1905,-0.1907,-0.1916,-0.1919,-0.1883,-0.1883,-0.1883,0,-0.147,-0.1512,-0.1536,-0.1565,-0.1585,-0.1606,-0.1632,-0.1655,-0.17,-0.1714,-0.1714,-0.1781,-0.1807,-0.185,-0.1856,-0.1872,-0.188,-0.1875,-0.1903,-0.1905,-0.1907,-0.1916,-0.1919,-0.1882,-0.1882,-0.1882,-0.1882,0,-0.1505,-0.1534,-0.1551,-0.1593,-0.1615,-0.1643,-0.1672,-0.1692,-0.1706,-0.1727,-0.1765,-0.1797,-0.1835,-0.1847,-0.1861,-0.1892,-0.1892,-0.1897,-0.1897,-0.1908,-0.1917,-0.1921,-0.1881,-0.1881,-0.1882,-0.1882,0,0,-0.1509,-0.1564,-0.157,-0.1589,-0.1631,-0.1655,-0.1684,-0.172,-0.1736,-0.1767,-0.1792,-0.1837,-0.1842,-0.1865,-0.1883,-0.19,-0.1918,-0.1904,-0.1905,-0.1905,-0.1955,-0.195,-0.1954,-0.1926,-0.1927,-0.1927,-0.1952,0,-0.1528,-0.1579,-0.1602,-0.1644,-0.1671,-0.1691,-0.1717,-0.1746,-0.1767,-0.1794,-0.1818,-0.1849,-0.1854,-0.1867,-0.1886,-0.1912,-0.1928,-0.1911,-0.195,-0.1952,-0.194,-0.1958,-0.1953,-0.1975,-0.1955,-0.1956,-0.1956,0,-0.1558,-0.1587,-0.1631,-0.167,-0.1683,-0.1705,-0.174,-0.1766,-0.18,-0.1814,-0.1839,-0.1856,-0.1888,-0.1886,-0.1931,-0.1918,-0.1936,-0.1952,-0.1953,-0.1957,-0.1954,-0.1963,-0.1982,-0.1985,-0.1962,-0.1962,-0.1961,0,-0.1556,-0.1607,-0.164,-0.1656,-0.1702,-0.1718,-0.1738,-0.1771,-0.1792,-0.1823,-0.1837,-0.1872,-0.1891,-0.1918,-0.1944,-0.194,-0.1987,-0.1987,-0.2,-0.1999,-0.2009,-0.2008,-0.2031,-0.2021,-0.2021,-0.2021,-0.2021,0,-0.1575,-0.1601,-0.164,-0.166,-0.169,-0.1717,-0.1746,-0.1768,-0.1797,-0.1823,-0.1843,-0.1867,-0.19,-0.1928,-0.1949,-0.1983,-0.1992,-0.2005,-0.201,-0.2003,-0.2001,-0.2015,-0.2014,-0.2021,-0.2021,-0.2021,-0.2021,0,-0.1577,-0.1604,-0.1642,-0.1682,-0.1693,-0.1714,-0.1749,-0.177,-0.1792,-0.1824,-0.1833,-0.1869,-0.1903,-0.1932,-0.1977,-0.1991,-0.2027,-0.2033,-0.2015,-0.2018,-0.2029,-0.2027,-0.2061,-0.2067,-0.2053,-0.2053,-0.2053,0,-0.1588,-0.1608,-0.1651,-0.1669,-0.1689,-0.1718,-0.1739,-0.1766,-0.1787,-0.1828,-0.1844,-0.188,-0.1909,-0.1963,-0.1994,-0.2029,-0.2036,-0.2045,-0.2041,-0.2033,-0.2036,-0.2034,-0.2037,-0.2045,-0.2045,-0.2045,-0.2045,0,-0.1603,-0.1615,-0.1644,-0.1678,-0.1702,-0.173,-0.1759,-0.1773,-0.1806,-0.1829,-0.1864,-0.1887,-0.1933,-0.1968,-0.2007,-0.2029,-0.2043,-0.2047,-0.2051,-0.2044,-0.2032,-0.2039,-0.2015,-0.2046,-0.2046,-0.2046,-0.2046,-0.2046,-0.161,-0.1629,-0.1662,-0.1694,-0.1718,-0.1744,-0.1766,-0.1791,-0.182,-0.1859,-0.1874,-0.191,-0.1944,-0.1997,-0.2019,-0.2048,-0.205,-0.2057,-0.2059,-0.206,-0.2059,-0.2028,-0.2055,-0.2055,-0.2055,-0.2055,-0.2055,0,-0.1626,-0.1648,-0.1677,-0.1716,-0.1741,-0.1752,-0.1784,-0.1805,-0.1836,-0.1866,-0.1895,-0.1935,-0.197,-0.2003,-0.2039,-0.2056,-0.2064,-0.2065,-0.2064,-0.2069,-0.2055,-0.2047,-0.2058,-0.2058,-0.2058,-0.2058,-0.2058,-0.2058,-0.1637,-0.167,-0.1687,-0.1732,-0.1755,-0.1789,-0.1807,-0.1832,-0.1856,-0.19,-0.1928,-0.1949,-0.1981,-0.202,-0.2052,-0.2061,-0.2074,-0.2073,-0.2084,-0.207,-0.207,-0.2069,-0.2061,-0.2075,-0.2075,-0.2095,-0.2095,-0.2095]},{"header":{"parameterUnit":"m.s-1","parameterCategory":1,"la1":30.2991,"la2":30.254,"lo1":-89.0895,"lo2":-89.0444,"dy":0.0017,"dx":0.0017,"nx":28,"ny":28,"refTime":"2024-02-26T03:00:00:Z","depth":0,"parameterNumber":3,"parameterNumberName":"V-component_of_WINDS"},"data":[0,0,0,0,0,0,0,0,0,0,0,0,0,0,0,0,0,0,0,0,0,0,0,0,0,0,0,0,0,0,0,0,0,0,0,0,0,0,0,0,0,0,0,0,0,0,0,0,0,0,0,0,0,0,0,0,0,0,5.8826,5.8825,0,5.8796,5.8796,5.8796,5.8793,5.8793,5.8794,5.8794,5.8758,5.8756,5.8755,0,0,0,0,0,0,0,0,0,0,0,0,0,5.8876,5.8876,5.8826,5.8825,5.8825,5.8796,5.8796,5.8796,5.8793,5.8793,5.8794,5.8794,5.8758,5.8757,5.8755,0,0,0,0,0,0,0,0,0,0,0,0,0,5.8851,5.8875,5.8826,5.882,5.882,5.8797,5.8796,5.8796,5.8793,5.8793,5.8794,5.8794,5.8759,5.8757,5.8755,5.8733,0,0,5.8749,5.8748,0,0,0,0,0,0,0,0,5.8853,5.8849,5.8821,5.8821,5.882,5.8799,5.8801,5.8774,5.8793,5.8803,5.8794,5.8795,5.8771,5.8768,5.8761,5.8732,5.873,5.8749,5.8748,5.8747,5.8746,0,0,0,0,0,0,0,5.8855,5.8851,5.8814,5.8821,5.882,5.8819,5.8816,5.8796,5.8784,5.8802,5.8802,5.8799,5.877,5.8763,5.876,5.8729,5.8749,5.8747,5.8746,5.8745,5.8686,5.8686,0,0,0,0,0,0,5.8858,5.8852,5.8815,5.8813,5.8838,5.8817,5.8814,5.8805,5.8784,5.8782,5.8798,5.8799,5.8766,5.8762,5.8759,5.8736,5.8747,5.8745,5.8744,5.8687,5.8686,5.8686,0,0,0,0,0,0,5.8859,5.8855,5.8816,5.8833,5.8828,5.8816,5.8806,5.8804,5.8797,5.8782,5.8779,5.8793,5.8766,5.8761,5.8741,5.8734,5.8744,5.8743,5.8687,5.8687,5.8686,5.8687,0,0,0,0,0,0,5.886,5.8855,5.8847,5.8833,5.8827,5.8799,5.8805,5.8803,5.8794,5.8795,5.8776,5.8773,5.8766,5.8744,5.8739,5.8732,5.8741,5.8688,5.8687,5.8686,5.8688,5.8687,5.8686,0,0,0,0,0,5.8862,5.8846,5.8846,5.8842,5.8817,5.8799,5.8796,5.8789,5.8794,5.8786,5.8777,5.8774,5.8736,5.8742,5.8737,5.8728,5.8688,5.8687,5.8686,5.8688,5.8687,5.8686,0,0,0,0,0,0,5.8855,5.8843,5.8844,5.8822,5.8812,5.8799,5.8788,5.8787,5.8774,5.8774,5.8765,5.8761,5.8742,5.8733,5.874,5.8709,5.8713,5.8711,5.8716,5.8714,5.8713,5.8716,5.8739,0,0,0,0,0,5.8852,5.884,5.883,5.8812,5.8807,5.8799,5.879,5.8788,5.8775,5.877,5.8759,5.8747,5.8733,5.8723,5.8708,5.8687,5.8684,5.8679,5.8678,5.8677,5.8675,5.8667,5.8666,5.8683,5.8683,5.8683,0,0,5.8843,5.8836,5.8828,5.881,5.8802,5.879,5.8795,5.878,5.8771,5.8767,5.8749,5.8741,5.8727,5.8707,5.8698,5.8699,5.8671,5.8676,5.8676,5.8674,5.8666,5.8665,5.8663,5.8682,5.8682,5.8682,0,0,5.8822,5.8814,5.8801,5.8794,5.8783,5.8779,5.8776,5.8764,5.8759,5.8742,5.874,5.8729,5.8703,5.8695,5.8687,5.8669,5.8667,5.8665,5.8659,5.8652,5.865,5.8649,5.8645,5.8644,5.8663,5.8663,5.8663,0,5.8812,5.8796,5.8793,5.8781,5.8775,5.8775,5.8762,5.8754,5.8738,5.8733,5.8736,5.8708,5.8697,5.8678,5.8675,5.8667,5.8665,5.8666,5.8651,5.865,5.8649,5.8645,5.8643,5.8663,5.8663,5.8663,5.8663,0,5.8786,5.8774,5.8765,5.8754,5.8746,5.8733,5.8729,5.8722,5.8721,5.8716,5.87,5.8689,5.8675,5.867,5.8666,5.8651,5.8653,5.8653,5.8656,5.8647,5.8644,5.8642,5.8663,5.8663,5.8663,5.8663,0,0,5.8756,5.8749,5.8745,5.8742,5.8733,5.8724,5.8712,5.8702,5.8697,5.8686,5.8677,5.8659,5.8662,5.8653,5.8649,5.8642,5.8634,5.8644,5.8644,5.8644,5.862,5.862,5.8618,5.8633,5.8632,5.8632,5.8622,0,5.8735,5.8717,5.8717,5.87,5.8691,5.8694,5.8685,5.8678,5.8675,5.8666,5.8662,5.865,5.8653,5.8648,5.8642,5.8636,5.8629,5.8637,5.8625,5.8624,5.8629,5.8616,5.8615,5.8605,5.862,5.862,5.8619,0,5.8708,5.8702,5.8686,5.8683,5.8679,5.867,5.8663,5.8655,5.8649,5.8647,5.8641,5.864,5.8629,5.8634,5.862,5.8625,5.8621,5.8618,5.8617,5.8616,5.8621,5.8616,5.8602,5.8601,5.8617,5.8617,5.8617,0,5.8691,5.8679,5.8669,5.8666,5.8661,5.8656,5.8653,5.8648,5.8643,5.8636,5.8634,5.8625,5.862,5.8613,5.861,5.8614,5.8598,5.8601,5.8597,5.8597,5.8592,5.8593,5.8579,5.8588,5.8588,5.8588,5.8588,0,5.8669,5.8659,5.8662,5.8655,5.8646,5.8647,5.8636,5.8634,5.863,5.8624,5.8624,5.8618,5.8615,5.8608,5.8605,5.8596,5.8593,5.8592,5.8592,5.8592,5.8593,5.8589,5.859,5.8588,5.8588,5.8588,5.8588,0,5.8648,5.8649,5.8639,5.8638,5.8637,5.863,5.8629,5.8623,5.8622,5.8614,5.8612,5.861,5.8603,5.86,5.859,5.8589,5.8579,5.8578,5.8582,5.8582,5.8578,5.8579,5.8562,5.8561,5.857,5.857,5.8569,0,5.8634,5.8627,5.8627,5.8625,5.8623,5.8618,5.8615,5.8616,5.8613,5.8609,5.8604,5.8598,5.8593,5.8582,5.8579,5.8572,5.8572,5.8567,5.8571,5.8574,5.8574,5.8575,5.8576,5.8566,5.8566,5.8565,5.8565,0,5.861,5.8612,5.8609,5.8607,5.8604,5.8602,5.8599,5.8597,5.8598,5.8595,5.859,5.8586,5.8579,5.8574,5.8568,5.8565,5.8566,5.8565,5.8564,5.8565,5.8568,5.8569,5.8581,5.8565,5.8565,5.8565,5.8565,5.8565,5.8593,5.8589,5.859,5.8587,5.8587,5.8586,5.8583,5.8583,5.858,5.8576,5.8577,5.8572,5.857,5.8563,5.8561,5.8557,5.8558,5.8556,5.8555,5.8555,5.8556,5.8569,5.8556,5.8556,5.8556,5.8556,5.8556,0,5.8571,5.8573,5.8571,5.857,5.8569,5.8573,5.8573,5.8571,5.8567,5.8566,5.8563,5.8559,5.8556,5.8554,5.8551,5.8548,5.8549,5.8547,5.8548,5.8548,5.8554,5.8556,5.8547,5.8547,5.8547,5.8547,5.8547,5.8547,5.8559,5.8554,5.8558,5.8554,5.8555,5.8553,5.8553,5.8552,5.8552,5.8549,5.8547,5.8548,5.8547,5.8545,5.8542,5.8542,5.8541,5.854,5.854,5.8546,5.8547,5.8547,5.855,5.8539,5.8539,5.8534,5.8534,5.8534]}]]